Regional Weather Roundup
Issued by NWS State College, PA

Home | Current Version | Previous Version | Graphics & Text | Print | Product List | Glossary Off
Versions: 1 2 3 4 5 6 7 8 9 10 11 12 13 14 15 16 17 18 19 20 21 22 23 24 25 26 27 28 29 30 31 32 33 34 35 36 37 38 39 40 41 42 43 44 45 46 47 48 49 50

000
ASUS41 KCTP 272303
RWRCTP

REGIONAL WEATHER ROUNDUP
NATIONAL WEATHER SERVICE STATE COLLEGE PA
700 PM EDT MON JUL 27 2015

Note: "fair" indicates few or no clouds below 12,000 feet with no
significant weather and/or obstructions to visibility.

* = STATION THAT DOES NOT REPORT PRECIPITATION /E.G. RAIN...SNOW...ETC/
    THUNDER OR FOG.

PAZ002>004-007>009-013>016-020>023-029>032-280000-
WESTERN PENNSYLVANIA

CITY           SKY/WX    TMP DP  RH WIND       PRES   REMARKS
ERIE           SUNNY     83  60  45 NE9       30.00F
MEADVILLE      SUNNY     82  62  50 N6        30.02S
FRANKLIN*      SUNNY     82  59  44 N3        30.03S
NEW CASTLE     FAIR      87  64  46 CALM      30.00F
BEAVER COUNTY  SUNNY     84  63  48 N7        30.00F
BUTLER*        SUNNY     84  64  51 CALM      30.01S
PITTSBURGH INT MOSUNNY   88  61  40 N9        29.98F
PITTSBURGH     PTSUNNY   84  59  42 E6        29.98S
INDIANA*       SUNNY     84  66  54 E3        30.03S
LATROBE        SUNNY     84  64  51 CALM      29.99S
WASHINGTON CO* NOT AVBL
$$

PAZ004>006-010>012-017>019-024>028-033>037-041-042-045-046-049>053-280000-
CENTRAL PENNSYLVANIA

CITY           SKY/WX    TMP DP  RH WIND       PRES   REMARKS
BRADFORD       SUNNY     81  55  40 NE3       30.06S
DUBOIS         FAIR      85  61  44 E5        30.02F
CLEARFIELD     FAIR      81  65  58 E5        30.02F
JOHNSTOWN      MOSUNNY   77  65  66 E3        30.04F
ALTOONA        MOSUNNY   80  69  69 E6        30.02S
STATE COLLEGE  MOSUNNY   81  70  69 CALM      30.01S
WILLIAMSPORT   SUNNY     82  68  62 S3        29.97R
SELINSGROVE    SUNNY     81  70  69 S3        29.98S
FT INDIANTOWN  SUNNY     82  70  67 CALM      29.98S
CAPITAL CITY   MOSUNNY   83  69  62 SE5       29.97S
HARRISBURG     MOSUNNY   84  72  67 CALM      29.96S
YORK           SUNNY     81  71  71 SE3       29.97F
$$

PAZ038>040-043-044-047-048-054-055-060>062-067>071-280000-
EASTERN PENNSYLVANIA

CITY           SKY/WX    TMP DP  RH WIND       PRES   REMARKS
SCRANTON       SUNNY     85  60  42 NW6       30.00R
MOUNT POCONO   MOSUNNY   75  68  78 CALM      30.05S
ALLENTOWN      SUNNY     85  68  56 CALM      29.97S
QUAKERTOWN*    CLEAR     82  70  65 SW5       29.99S
READING        SUNNY     83  69  62 S3        29.96S
LANCASTER      SUNNY     81  70  69 SE5       29.97F
COATESVILLE    CLEAR     79  72  78 SE3       30.01R
POTTSTOWN      LGT RAIN  80  72  76 S3        29.99S
BLUE BELL      PTSUNNY   82  70  65 S3        29.97S
DOYLESTOWN     SUNNY     77  69  76 S5        29.98R
WILLOW GROVE   NOT AVBL
NORTH PHILA    PTSUNNY   83  68  60 S3        29.98S
PHILADELPHIA   MOSUNNY   83  69  62 S9        29.97S
$$



USA.gov is the U.S. government's official web portal to all federal, state and local government web resources and services.